Wind_Speed
4 4 8 13 10 3 4 4 6 3 3 2 6 7 12 4 11 12 11 11 11 13 16 17 19 21 21 22 22 21 17 14 9 7 8 8 7 8 6 4 4 5 7 10
4 7 10 4 5 5 3 4 6 5 4 5 6 9 2 3 2 10 14 13 14 16 17 20 22 23 24 27 28 28 28 26 24 21 19 16 13 12 9 5 3 5 7 8
8 5 7 6 4 6 5 7 4 7 1 2 1 7 4 3 8 12 12 14 15 16 17 18 20 23 24 26 27 27 27 27 27 26 23 21 18 15 12 11 8 8 10 10
6 4 6 4 6 7 5 8 7 4 3 4 2 5 4 3 3 4 12 15 15 16 17 17 19 21 22 23 22 21 21 21 21 19 17 15 16 16 17 14 14 13 12 11
7 7 5 6 6 7 6 5 5 3 3 1 3 0 6 5 5 6 14 16 16 17 17 19 18 17 18 17 17 17 17 18 17 16 16 15 16 15 13 12 11 11 12 12
5 1 6 7 2 6 9 6 6 4 3 1 8 7 4 5 5 5 15 19 19 18 17 17 16 14 13 13 13 13 13 16 14 12 12 11 12 11 8 10 10 12 12 12
1 4 3 4 5 2 4 6 0 3 1 6 1 2 7 5 3 5 18 27 23 19 18 17 14 12 10 9 8 9 9 10 9 8 7 7 7 7 8 10 11 11 12 14
7 4 10 6 7 8 7 6 5 7 4 4 2 6 5 3 6 9 20 28 25 23 19 16 12 9 7 5 4 4 4 5 5 5 6 6 7 8 9 9 11 13 15 16
6 5 1 2 2 4 5 4 2 6 2 2 5 4 2 1 1 7 19 28 28 25 23 19 15 11 6 3 2 1 1 1 3 3 4 5 5 6 7 8 10 12 13 15
7 2 1 2 4 4 4 6 4 2 2 5 4 4 5 5 8 6 11 26 27 24 23 21 18 13 9 6 5 5 4 2 2 1 0 2 4 7 8 9 11 12 13 14
6 4 1 4 5 9 3 3 3 3 4 5 2 5 6 7 9 13 18 29 28 26 25 23 20 18 13 10 9 9 8 7 5 3 2 4 6 9 12 14 16 17 18 18
7 4 4 6 2 1 0 6 7 6 6 2 1 11 2 4 15 25 26 29 26 24 23 22 22 20 18 14 13 12 11 10 7 6 5 6 9 11 13 16 18 20 21 22
9 3 2 5 1 1 4 5 3 4 3 7 6 8 3 4 9 21 22 25 24 22 21 22 23 25 22 19 16 15 14 12 10 8 8 9 11 14 17 19 21 23 24 25
12 5 8 10 6 5 6 7 6 6 5 5 13 14 3 4 8 13 19 20 21 20 19 19 24 26 27 22 19 18 16 15 14 12 12 13 14 17 19 22 23 25 27 27
5 7 5 3 4 5 7 7 10 10 12 13 13 13 7 11 10 20 21 16 18 18 19 22 24 27 27 24 22 20 18 18 17 17 17 17 17 19 22 24 26 28 28 30
3 1 3 2 2 1 5 9 11 17 4 6 4 11 7 11 14 14 19 17 21 23 19 18 20 23 26 25 23 21 20 20 20 21 22 21 20 22 24 26 28 30 30 32
5 6 4 5 4 4 9 10 15 6 5 11 12 14 4 5 10 19 22 20 18 16 15 17 17 18 20 22 20 20 20 22 24 26 26 24 23 25 27 28 31 32 33 35
6 4 2 4 3 7 2 4 1 14 8 9 1 4 8 6 14 14 14 13 14 17 18 15 13 13 14 16 18 20 24 28 30 29 29 28 27 29 30 31 33 32 34 34
2 5 3 5 5 6 4 6 7 8 10 10 11 9 8 8 5 10 11 10 12 14 13 12 12 12 12 13 17 22 27 31 31 31 31 31 30 30 31 32 32 32 35 34
3 2 5 4 4 7 2 1 6 5 6 12 18 11 10 10 2 5 6 9 12 14 14 14 13 11 15 18 22 24 27 27 29 30 30 30 30 31 32 32 32 33 34 35
4 1 9 5 5 7 5 7 12 6 7 7 17 13 17 5 10 11 14 13 14 16 16 17 16 17 21 19 22 25 26 28 29 31 31 30 29 30 31 33 32 33 33 33
7 8 4 2 3 9 13 5 8 5 6 12 14 16 17 12 10 12 16 19 17 18 18 21 19 24 22 22 23 26 28 28 30 31 30 29 28 30 32 33 32 32 31 32
3 6 6 10 6 1 29 5 15 10 8 11 16 19 16 13 13 12 14 21 22 20 20 22 25 26 25 25 25 28 29 31 32 32 31 29 29 31 30 31 31 30 29 30
4 3 3 3 4 6 23 17 9 12 14 15 16 18 16 17 17 20 19 22 23 23 25 26 28 30 30 29 29 31 32 33 33 32 31 30 30 30 29 29 29 28 26 28
5 8 6 1 1 4 12 17 16 16 15 16 16 19 21 22 24 22 23 24 26 25 29 29 30 30 30 29 31 33 34 34 32 31 30 30 31 31 29 28 27 26 24 27
8 7 5 4 13 13 10 14 16 18 17 15 18 22 24 23 24 25 25 24 25 25 27 29 26 25 27 28 30 33 34 32 31 31 31 31 30 28 28 28 26 21 23 24
Wind_Direction
143 123 209 201 200 155 150 177 210 249 222 135 237 237 263 63 120 140 141 132 113 97 87 85 83 83 84 85 85 83 84 84 85 89 86 86 84 86 99 93 9 328 311 309
57 223 227 140 169 183 147 177 238 284 229 166 262 255 205 25 123 178 153 140 128 119 115 106 100 96 91 84 81 81 79 79 78 76 74 73 74 79 74 77 5 338 315 305
171 212 154 157 166 174 201 208 187 214 10 258 19 285 171 36 104 132 144 145 140 131 120 111 106 98 91 88 83 74 70 69 65 64 65 68 67 70 70 66 52 35 19 8
229 258 181 168 208 150 221 197 191 179 119 231 126 272 303 155 125 146 158 160 152 143 132 122 113 106 96 86 78 70 64 59 63 65 60 51 51 49 59 57 53 45 41 36
232 177 176 198 214 159 224 119 158 142 156 87 240 300 256 129 224 197 193 177 167 158 146 131 120 107 96 90 82 71 58 56 57 56 53 50 53 57 63 59 49 43 34 31
238 238 167 200 117 166 146 83 54 53 84 267 226 187 251 193 210 168 188 188 177 168 154 143 130 116 107 93 82 71 55 42 41 36 38 41 45 46 39 34 26 25 23 22
195 220 191 169 95 58 101 105 326 348 333 233 330 164 249 185 182 192 185 185 182 174 168 160 146 131 115 102 87 69 54 47 52 45 46 48 41 28 20 16 16 13 13 14
168 259 168 191 185 172 181 165 161 211 205 245 62 237 258 351 320 269 199 185 181 180 179 173 160 147 131 119 97 64 59 58 59 57 56 50 38 30 23 17 11 6 5 6
159 266 137 116 125 134 190 195 145 100 19 45 209 260 225 49 37 139 169 181 188 188 187 185 184 184 175 174 186 149 60 78 88 76 62 43 26 16 11 6 359 352 348 344
205 142 65 131 110 43 156 162 78 3 256 259 250 256 224 228 214 167 177 190 197 197 197 197 202 207 215 213 220 234 224 223 203 197 203 354 359 359 355 350 342 341 339 335
161 129 243 120 203 175 139 175 80 144 153 201 283 253 209 207 169 186 200 200 200 203 206 209 212 216 220 231 235 233 222 217 217 222 281 330 336 338 339 338 339 338 336 333
194 139 165 190 127 16 31 197 163 196 225 238 137 261 349 239 186 183 197 203 206 211 212 216 221 225 231 238 239 234 226 223 225 239 271 304 320 326 329 329 330 328 326 326
178 183 88 358 69 67 207 196 168 110 72 198 213 265 356 103 160 197 199 203 208 216 219 223 229 234 239 242 241 238 232 230 234 247 271 295 309 319 323 324 323 323 322 320
161 163 174 211 190 138 173 188 191 168 221 214 241 270 197 199 194 195 206 210 208 216 226 233 240 243 244 241 242 235 232 233 238 249 267 283 298 309 316 319 318 319 317 315
174 210 174 162 150 175 200 190 175 193 217 222 255 228 188 205 201 208 206 205 215 225 240 250 249 248 245 239 237 231 232 235 242 252 265 276 286 300 310 314 313 314 312 312
345 184 100 305 35 268 258 230 177 212 196 239 216 258 183 210 222 219 217 218 232 249 246 245 248 249 244 239 238 236 237 239 246 256 262 267 278 293 301 309 309 309 308 311
169 144 140 224 77 66 278 223 213 189 193 201 217 242 136 197 207 217 231 234 236 236 236 241 246 247 242 237 237 239 246 246 252 255 259 266 274 283 292 303 307 306 308 312
146 123 94 125 85 236 241 42 168 216 234 211 308 216 203 197 219 226 221 224 226 234 235 237 237 239 238 240 243 251 253 253 255 256 262 265 270 280 289 299 302 303 307 309
326 131 139 168 199 335 244 186 164 170 250 181 208 233 196 192 201 238 213 243 253 242 236 235 234 235 236 242 261 261 261 261 259 261 263 263 269 279 288 294 296 301 307 309
80 72 196 161 186 214 272 116 139 107 273 205 194 215 161 145 163 251 300 286 259 244 241 236 214 233 272 271 262 265 269 269 269 262 259 260 269 281 288 292 296 302 306 309
117 81 213 211 232 278 210 188 149 131 251 173 203 206 171 177 215 292 293 273 260 252 247 225 238 272 293 271 267 271 269 267 262 255 255 261 273 283 290 293 296 301 303 307
158 164 190 119 199 266 156 112 175 199 136 162 179 179 193 224 258 269 267 262 253 245 240 236 262 281 278 266 271 273 269 265 258 256 258 266 276 288 288 291 294 299 304 308
229 192 180 193 202 106 173 154 186 154 164 194 209 212 221 238 264 286 286 269 258 247 246 255 272 275 270 264 272 276 269 260 259 259 263 270 281 284 285 287 292 297 303 306
259 172 198 126 183 190 193 211 194 214 240 252 253 243 241 251 287 299 291 280 260 255 259 269 269 268 266 263 270 272 263 259 259 262 267 273 280 283 284 285 290 296 303 306
199 140 156 283 23 175 234 217 227 244 257 266 270 265 263 271 286 294 291 282 265 274 273 273 271 268 269 262 268 266 261 258 261 266 271 277 282 282 283 285 292 297 304 307
182 178 165 204 197 183 200 235 240 236 246 262 269 273 274 280 284 288 286 285 282 279 283 275 269 267 263 264 267 262 259 259 264 269 273 279 281 281 283 286 291 296 304 306
Height
1530 1537 1539 1533 1532 1533 1538 1544 1543 1538 1535 1537 1538 1538 1530 1532 1532 1534 1535 1537 1538 1539 1540 1539 1538 1537 1536 1534 1533 1533 1534 1533 1534 1534 1534 1535 1536 1537 1539 1541 1543 1544 1544 1544
1534 1536 1524 1527 1532 1535 1537 1541 1543 1539 1535 1538 1535 1534 1529 1532 1533 1533 1536 1538 1539 1540 1540 1539 1539 1539 1538 1537 1536 1536 1536 1537 1536 1536 1535 1536 1537 1538 1539 1541 1541 1543 1543 1542
1529 1522 1521 1526 1531 1535 1539 1540 1540 1537 1535 1535 1537 1536 1532 1536 1535 1534 1536 1538 1539 1541 1541 1542 1541 1540 1541 1539 1537 1540 1539 1539 1539 1538 1538 1539 1540 1540 1540 1540 1540 1540 1540 1539
1525 1518 1520 1525 1526 1529 1537 1530 1532 1535 1540 1547 1537 1547 1527 1534 1538 1538 1537 1537 1539 1539 1541 1542 1543 1541 1539 1540 1541 1541 1541 1542 1542 1543 1543 1542 1540 1540 1539 1540 1538 1539 1539 1538
1517 1517 1520 1522 1520 1523 1527 1527 1532 1535 1541 1541 1539 1547 1528 1532 1536 1537 1537 1535 1537 1539 1540 1540 1542 1543 1543 1542 1540 1541 1543 1543 1543 1542 1541 1542 1540 1541 1540 1540 1540 1539 1540 1538
1514 1513 1514 1513 1515 1516 1522 1528 1536 1544 1547 1554 1534 1536 1529 1529 1519 1526 1531 1535 1537 1540 1541 1541 1542 1543 1543 1543 1544 1544 1544 1544 1543 1544 1543 1542 1543 1545 1543 1543 1541 1541 1541 1539
1512 1511 1509 1510 1516 1519 1521 1529 1544 1551 1558 1543 1536 1539 1517 1515 1516 1518 1523 1526 1533 1538 1540 1540 1541 1542 1543 1544 1545 1543 1542 1542 1543 1543 1543 1543 1543 1545 1543 1543 1542 1542 1541 1539
1515 1515 1507 1503 1505 1511 1520 1521 1535 1542 1549 1537 1539 1534 1511 1519 1519 1519 1520 1525 1530 1532 1537 1540 1542 1544 1543 1543 1543 1543 1542 1541 1542 1542 1542 1543 1543 1543 1542 1541 1541 1541 1540 1539
1509 1502 1498 1500 1502 1504 1518 1522 1518 1537 1576 1551 1521 1514 1517 1517 1519 1518 1521 1524 1526 1528 1531 1535 1538 1540 1540 1541 1543 1543 1542 1541 1540 1540 1541 1541 1543 1542 1541 1541 1540 1540 1538 1537
1489 1498 1499 1500 1501 1505 1506 1512 1526 1539 1547 1551 1516 1515 1504 1514 1515 1519 1520 1521 1525 1529 1529 1530 1533 1537 1540 1539 1539 1540 1540 1539 1540 1540 1540 1541 1541 1541 1541 1541 1540 1538 1537 1536
1487 1488 1503 1499 1502 1504 1511 1512 1517 1520 1530 1533 1540 1505 1501 1499 1508 1513 1516 1517 1519 1524 1527 1528 1530 1532 1533 1535 1536 1536 1537 1538 1538 1538 1538 1538 1539 1538 1538 1538 1537 1536 1534 1532
1480 1490 1507 1498 1498 1500 1500 1502 1506 1509 1522 1533 1531 1490 1501 1497 1498 1501 1507 1513 1517 1520 1523 1524 1527 1529 1531 1532 1533 1534 1534 1535 1536 1536 1536 1536 1536 1536 1535 1535 1533 1532 1531 1528
1475 1488 1515 1505 1499 1498 1499 1500 1503 1509 1516 1521 1509 1498 1501 1498 1500 1503 1505 1508 1513 1519 1520 1521 1523 1524 1525 1527 1530 1531 1532 1532 1533 1533 1533 1533 1533 1533 1532 1530 1529 1528 1526 1524
1461 1476 1475 1473 1482 1483 1494 1494 1501 1498 1501 1496 1493 1491 1502 1501 1499 1500 1503 1505 1508 1512 1515 1517 1518 1519 1520 1522 1524 1526 1527 1529 1530 1530 1530 1530 1530 1529 1528 1527 1525 1523 1521 1520
1462 1470 1474 1471 1474 1478 1478 1478 1491 1495 1487 1486 1485 1493 1496 1495 1495 1494 1496 1501 1504 1508 1509 1510 1511 1512 1514 1516 1519 1521 1522 1523 1524 1525 1526 1526 1526 1525 1524 1523 1522 1519 1517 1514
1466 1471 1473 1482 1481 1482 1483 1477 1481 1482 1485 1487 1494 1489 1486 1489 1490 1492 1494 1496 1498 1500 1503 1504 1506 1507 1508 1512 1514 1516 1517 1518 1519 1520 1521 1521 1521 1520 1520 1519 1517 1515 1512 1508
1467 1474 1479 1469 1489 1489 1484 1469 1472 1478 1476 1475 1488 1475 1482 1485 1486 1487 1488 1491 1493 1497 1499 1500 1501 1502 1503 1506 1509 1511 1512 1513 1513 1514 1515 1515 1515 1515 1514 1513 1511 1508 1505 1501
1464 1471 1474 1485 1494 1483 1461 1464 1466 1466 1469 1474 1477 1478 1476 1480 1483 1484 1485 1487 1490 1492 1492 1494 1496 1498 1500 1502 1503 1506 1506 1506 1507 1508 1509 1510 1509 1509 1508 1506 1504 1501 1498 1494
1458 1461 1481 1480 1484 1469 1456 1463 1469 1468 1467 1465 1470 1467 1472 1477 1480 1479 1480 1482 1484 1485 1487 1489 1491 1493 1495 1498 1501 1500 1500 1500 1501 1501 1502 1503 1503 1503 1501 1500 1497 1494 1491 1487
1460 1458 1456 1487 1473 1467 1456 1456 1457 1462 1474 1458 1458 1461 1469 1474 1486 1473 1477 1478 1481 1482 1484 1483 1485 1488 1490 1492 1493 1494 1494 1494 1495 1495 1495 1496 1497 1496 1494 1492 1490 1487 1483 1480
1461 1465 1452 1467 1463 1463 1453 1452 1457 1475 1460 1449 1454 1460 1466 1471 1471 1471 1471 1473 1476 1478 1478 1479 1480 1482 1484 1485 1486 1486 1486 1487 1488 1488 1488 1489 1489 1488 1487 1485 1483 1480 1477 1473
1448 1456 1462 1467 1465 1458 1447 1456 1458 1450 1446 1449 1455 1459 1463 1464 1467 1466 1467 1468 1470 1471 1471 1472 1474 1475 1477 1478 1479 1479 1479 1480 1480 1480 1482 1482 1482 1481 1479 1477 1475 1472 1469 1464
1442 1434 1445 1443 1439 1435 1438 1438 1441 1443 1446 1450 1453 1457 1458 1460 1461 1460 1460 1463 1464 1465 1466 1467 1467 1468 1469 1470 1471 1471 1471 1472 1472 1473 1474 1474 1474 1473 1471 1470 1468 1465 1462 1457
1436 1434 1435 1437 1435 1433 1436 1437 1437 1440 1444 1446 1448 1452 1454 1455 1455 1453 1454 1455 1457 1458 1459 1461 1460 1460 1461 1463 1464 1464 1464 1464 1465 1466 1467 1466 1466 1465 1464 1462 1460 1457 1454 1449
1424 1430 1433 1435 1430 1433 1433 1433 1434 1437 1439 1440 1442 1445 1447 1449 1447 1447 1447 1448 1450 1451 1452 1452 1452 1452 1454 1455 1456 1456 1456 1457 1458 1458 1459 1458 1457 1457 1456 1454 1452 1449 1446 1441
1417 1418 1423 1428 1420 1423 1425 1427 1428 1430 1432 1434 1436 1439 1440 1441 1441 1441 1440 1441 1442 1443 1443 1442 1443 1444 1446 1447 1448 1448 1448 1449 1450 1450 1450 1450 1449 1448 1447 1445 1443 1442 1438 1434